TJS-1

Last updated on May 21, 2019, 3:10 a.m. UTC

1 40892U 15046A   19140.64999391 -.00000166  00000-0  10000-3 0  9992
2 40892   0.0379 288.0878 0008892 113.0040 225.8660  1.00271865 13633
UTC
Height (km)
Latitude
Longitude
Inclination
Orbital Period
UTC large
Height (km)
Speed (km/s)
/
Latitude / Longitude
Inclination (degrees)
Orbital Period (minutes)
Azimuth
Elevation
Range (km)
Doppler Factor
iOS Compass Heading
iOS Angle

Next 30 passes for location: Hong Kong

Rise time Rise Azimuth (degrees) Set time Set Azimuth (degrees) Duration Max altitude (degrees)

No matching passes for this satellites